ข้อมูลล่าสุด:
27/05/2018 

แจ็คพอต

ข้อมูลแจ็คพอต ผู้ชนะ แจ็คพอต

Super royal flush jackpot กำลังจะเกิดขึ้นทีนี้

เข้าร่วมกับรางวัลระดับโลกปัจจุบันที่มีอยู่แล้วในเกมของเรากับระบบแจ็คพอตล่าสุดและผลตอบแทนที่ใหญ่กว่าที่คุณสามารถซื้อแจ็คพอตที่ราคาขนาดเล็กเป็น 100 ชิป

แจ็คพอตไม่ต้องซื้อ แต่เราให้เป็นคุณสมบัติพิเศษให้กับสมาชิกของ pokerdee.com

ระบบจะมีรางวัลโบนัสเพิ่มขึ้น pokerdee.com ให้ติดตาม

  1. Full House X 10 ราคาแจ็คพอตที่คุณจะซื้อ
      (ตัวอย่าง: คุณซื้อ 1,000 ชิพแล้ว: 1,000 X 10 = 10,000)
  2. Four of a Kind X 250 ราคาแจ็คพอตที่คุณจะซื้อ
      (ตัวอย่าง: คุณซื้อ 1,000 ชิพแล้ว: 1,000 x 250 = 250,000)
  3. Straight Flush x 1,200 ราคาแจ็คพอตที่คุณจะซื้อ
      ((ตัวอย่าง: คุณซื้อ 1,000 ชิพแล้ว: 1,000 x 1,200 = 1,200,000)
  4. Royal Flush X 10,000 ราคาแจ็คพอตที่คุณจะซื้อ
      (ตัวอย่าง: คุณซื้อ 1,000 ชิพแล้ว: 1,000 x 10,000 = 10,000,000)
  5. Super Royal Flush X 30,000 ราคาแจ็คพอตที่คุณจะซื้อ
      (ตัวอย่างเช่น: คุณซื้อ 0.1 แล้ว: 1,000 × 30,000 = 30,000,000)

เงื่อนไขการใช้บัตร:

  1. Full House เงื่อนไขในการที่บัตรของคุณและบัตรกลางมีทั้งหมด 7 บัตรจะได้รับไพ่ 5 ใบที่มีมูลค่ารวม 1 คู่ในไพ่สามใบ เช่น 3 ใบ 10 และ 2 ใบของ 5/li>
  2. Four of a Kind เงื่อนไขในการที่บัตรของคุณและบัตรกลางมีทั้งหมด 7 บัตรจะได้รับไพ่ 5 ใบที่มีมูลค่ารวมของไพ่ 4 ใบจำนวนเดียวกันและหนึ่ง (1) บัตร ตัวอย่างเช่นคุณจะได้รับ 4 ใบจาก 3 บัตร (3 S, 3 H, 3-C, 3-D) และบัตร 1 ของชนิด/li>
  3. เStraight Flush เงื่อนไขในการที่บัตรของคุณและบัตรกลางมีทั้งหมด 7 บัตรจะได้รับไพ่ 5 ใบที่มีดอกเดียวกันและมูลค่าต่อเนื่องเช่นบัตรของคุณอาจลำดับ 5-h, 6-h, 7-h, 8-h, 9-h 10-h.
  4. Royal Flush เงื่อนไขในการที่บัตรของคุณและบัตรกลางมีทั้งหมด 7 บัตรจะได้รับไพ่ 5 ใบที่มีดอกเดียวกันและมูลค่าต่อเนื่องกันกับการ์ดที่เล็กที่สุดในลำดับที่ 10 เช่น 10-s, J-s, Q-s, K-s, และ A-s.
  5. Super Royal flush เงื่อนไขที่ไพ่สองใบที่คุณมีอยู่ในมือรวมกับ 3 อันดับแรกเปิดไพ่บนโต๊ะที่มีอยู่แล้วรอยัลฟลัช ตัวอย่างเช่นครั้งแรกของคุณ 2 ใบในมือเป็น 10 และ Qs และอีก 3 บัตรทีโชว์อยู่บนโต๊ะเป็น J-s, K-s, และ A-s.

คำอธิบายดังกล่าวข้างต้นเป็นคำอธิบาย ของหลายแจ็คพอตที่pokerdee.comขอขอบคุณและขอแสดงความยินดีในการเล่นเกมของเรา เราหวังว่าทุกท่านโชคดี!

Texas Poker ผู้ชนะ แจ็คพอต

TOP SUPER ROYAL FLUSH
No.วันที่ชื่อราคาชนะ
127/05 12:13DILAN00Super Royal flush13.636.36
227/05 11:55BUNGASERAISuper Royal flush34.090.91
327/05 10:07DONO90Super Royal flush34.090.91
427/05 09:46TC622NGLYTSuper Royal flush68.181.82
526/05 18:59GACO777Super Royal flush34.090.91
TOP ROYAL FLUSH
No.วันที่ชื่อราคาชนะ
127/05 16:28SUMAN_1Royal flush2.272.73
227/05 16:03SIRONI99Royal flush11.363.64
327/05 16:02TOMOL23Royal flush4.545.45
427/05 16:00MATA12AMRoyal flush4.545.45
527/05 15:32SANDKINGSRoyal flush2.272.73
TOP STRAIGHT FLUSH
No.วันที่ชื่อราคาชนะ
127/05 16:28DESMAN0303Straight Flush545.45
227/05 16:25RINDUZAHRAStraight Flush2.727.27
327/05 16:23KAJEN12Straight Flush272.73
427/05 16:23AFM123Straight Flush545.45
527/05 16:22VICXON15Straight Flush545.45
P_LASTJACK
No.วันที่ชื่อราคาชนะ
127/05 16:29LB992405Full House4.55
227/05 16:28HIRROO21Full House2.27
327/05 16:28GORI004Full House11.36
427/05 16:28YNEH3ABLYFFull House4.55
527/05 16:28NGR24Full House22.73
627/05 16:28LUBISTA21Full House4.55
727/05 16:28EXWARJPFour Of A Kind28.41
827/05 16:28REDX88Full House11.36
927/05 16:28DEW4_H0K1Full House22.73
1027/05 16:28A4C9EAFEFull House4.55
1127/05 16:28GJKPASARFull House22.73
1227/05 16:28GANDONG15Full House4.55
1327/05 16:28MENANG226Full House2.27
1427/05 16:28EM4_NY4IFull House2.27
1527/05 16:28LADYCASSIA88Full House11.36
1627/05 16:28SEHAT22467Full House4.55
1727/05 16:28SUNCLAY11Full House4.55
1827/05 16:28DWTSESERJPTFull House4.55
1927/05 16:28BARGOT71Full House4.55
2027/05 16:28TV56789Full House1.14
2127/05 16:28CODFISH8Full House11.36
2227/05 16:28SUMAN_1Royal flush2.272.73
2327/05 16:28VILEKFull House4.55
2427/05 16:28B0DHCF2S99Full House4.55
2527/05 16:28T1S1GDZYPEFour Of A Kind568.18
2627/05 16:28MUDARQQFull House22.73
2727/05 16:28DUNGNETFull House4.55
2827/05 16:28GOKIL1984Full House11.36
2927/05 16:28HSP88BCAFull House22.73
3027/05 16:28BERUANG56Four Of A Kind113.64
3127/05 16:28BRODELA99Full House11.36
3227/05 16:28KAMUMAU1Full House11.36
3327/05 16:28MICROSOFSFull House22.73
3427/05 16:28MARDIAH12Full House22.73
3527/05 16:28INDRA248Full House11.36
3627/05 16:28WIN45_Full House11.36
3727/05 16:28A4RIL12Full House4.55
3827/05 16:28UPIK7Full House45.45
3927/05 16:28S3HU05Full House1.14
4027/05 16:28CB77DARAFull House11.36
4127/05 16:28HASANGAP0NFull House4.55
4227/05 16:28DESMAN0303Straight Flush545.45
4327/05 16:28MHK10969Full House4.55
4427/05 16:28PENGEMISHQFull House4.55
4527/05 16:28WISRI1Full House4.55
4627/05 16:28ABUAZIZFull House4.55
4727/05 16:28NERV46Full House22.73
4827/05 16:28PARKOCOKFull House22.73
4927/05 16:28MAMAX78Full House4.55
5027/05 16:28WANDA025Full House2.27
ข้อมูลแจ็คพอต ผู้ชนะ แจ็คพอต

Domino Multi Jackpot System

เข้าร่วมกับรางวัลระดับโลกในปัจจุบันที่มีอยู่แล้วในระบบของเรากับระบบแจ็คพอตใหม่ล่าสุดและเป็นครั้งแรกในประเทศอินโดนีเซียที่คุณสามารถซื้อแจ็คพอตในราคาเพียง 100 และมีโอกาสที่จะชนะ

แจ็คพ็อตไม่จำเป็นที่จะต้องซื้อ แต่เราให้มันเป็นคุณสมบัติพิเศษให้กับสมาชิกของ pokerdee.com

มีแจ็คพอต 4 ราคาที่คุณสามารถเลือกที่จะซื้อ: USD 100, 500, 1000 และ 2000 (เฉพาะโต๊ะวีไอพีพิเศษและด้านบน)

รางวัลแจ็คพอตหลายระบบใน pokerdee.com ดังต่อไปนี้:

  1. small Pure X 50 ราคาแจ็คพอตที่คุณจะซื้อ
      (ตัวอย่าง: คุณซื้อแล้ว 100 X 50 = 5000)
  2. Large Pure X 50 แจ็คพอตที่คุณจะซื้อ
      (ตัวอย่าง: คุณซื้อแล้ว 100 X 50 = 5000)
  3. Doublet X 0.01 ราคาแจ็คพอตที่คุณจะซื้อ
      (ตัวอย่าง: คุณซื้อแล้ว 100 X 1000 = 100000)
  4. Six Dewa X ราคา 6,666 แจ็คพอตที่ที่คุณจะซื้อ
      (ตัวอย่าง: คุณซื้อแล้ว 100 X 6666 = 666600)

คำอธิบายดังกล่าวข้างต้นเป็นคำอธิบาย ของหลายแจ็คพอตที่ pokerdee.com ขอขอบคุณและขอแสดงความยินดีในการเล่นเกมของเรา เราหวังว่าทุกท่านโชคดี!

Domino ผู้ชนะ แจ็คพอต

TOP ENAM DEWA
No.วันที่ชื่อราคาชนะ
127/05 16:13DIJOSRAmurni enam15.150
227/05 13:57ON99ON99murni enam7.575
327/05 12:29MURNI2110murni enam1.515
427/05 05:24UWOK1213murni enam15.150
527/05 02:28ANDHY417murni enam7.575
TOP BALAK
No.วันที่ชื่อราคาชนะ
127/05 16:27TOYUS233balak227.27
227/05 16:24YO1W6229OAbalak113.64
327/05 16:22BHONC0ZZbalak227.27
427/05 16:22SMD9128balak227.27
527/05 16:21AJISAPURObalak227.27
P_LASTJACK
No.วันที่ชื่อราคาชนะ
127/05 16:28LEONIE23lucky9922.73
227/05 16:27TOYUS233balak227.27
327/05 16:27BADOT666murni kecil113.64
427/05 16:26UNTUNGBGT9murni besar56.82
527/05 16:26B61207A6murni besar56.82
627/05 16:25TOYUS233murni besar113.64
727/05 16:25ALJESmurni kecil11.36
827/05 16:25AI7P3W289Wmurni kecil56.82
927/05 16:25ALJESmurni besar11.36
1027/05 16:24YO1W6229OAbalak113.64
1127/05 16:23ROYSEDERHAmurni kecil56.82
1227/05 16:23LBO73VKMQ6murni besar113.64
1327/05 16:23ABLEW14murni kecil56.82
1427/05 16:22BHONC0ZZbalak227.27
1527/05 16:22TANDUS22murni kecil113.64
1627/05 16:22ABLEW14murni besar56.82
1727/05 16:22SELIKAmurni kecil113.64
1827/05 16:22SMD9128balak227.27
1927/05 16:21FATMELAmurni besar56.82
2027/05 16:21AJISAPURObalak227.27
2127/05 16:20ABAK09murni besar11.36
2227/05 16:20RABUDmurni kecil11.36
2327/05 16:20RO1407murni besar11.36
2427/05 16:19BAH122murni kecil56.82
2527/05 16:18WK22murni kecil113.64
2627/05 16:14SADEGAHOKIbalak227.27
2727/05 16:13DIJOSRAmurni enam15.150
2827/05 16:13RIZQI_077murni kecil11.36
2927/05 16:12MZN71murni kecil113.64
3027/05 16:12OONYIELlucky99113.64
3127/05 16:11JEKRO45murni besar11.36
3227/05 16:11SELALUWIN_murni kecil11.36
3327/05 16:09RO1407murni kecil11.36
3427/05 16:09SKAY24lucky9956.82
3527/05 16:08SELALUWIN_murni kecil11.36
3627/05 16:08HK4DTEMPRAMENmurni besar113.64
3727/05 16:08BAHIRAANmurni besar113.64
3827/05 16:06ROYSEDERHAmurni besar56.82
3927/05 16:06AQUINO1712murni kecil56.82
4027/05 16:05AAAYEmurni kecil113.64
4127/05 16:05FUCK_YOU86murni kecil11.36
4227/05 16:04ACNAV5balak22.73
4327/05 16:04BIANG998murni besar113.64
4427/05 16:04ANDRIRAGILmurni besar113.64
4527/05 16:04GOODPAPAmurni besar56.82
4627/05 16:03USOOOOOYmurni kecil113.64
4727/05 16:03WAHISRImurni kecil113.64
4827/05 16:03AB2466KLmurni kecil11.36
4927/05 16:01ABOET123murni kecil113.64
5027/05 16:01CAT193murni besar113.64
ข้อมูลแจ็คพอต ผู้ชนะ แจ็คพอต

JACKPOT WINNER CEME

แจ็คพอตที่รวมกันจากทั้งผู้เล่นและตัวแทนจำหน่าย ตัวแทนจำหน่ายควรซื้อรางวัลแจ็คพอตให้มากที่สุดเท่าที่จำนวนของผู้เล่นทุกคนที่กำลังเล่น ตัวอย่างเช่นถ้ามีผู้เล่น 3 คนที่กำลังนั่งอยู่ในการเล่นและตัวแทนจำหน่ายได้ตัดสินใจที่จะซื้อ 100

แจ็คพอตจากนั้นในช่วงเวลานี้ตัวแทนจำหน่ายที่จะซื้อรางวัลมากที่สุดเท่าที่ 3 X 100 = 300 เหรียญสหรัฐ

แจ็คพ็อตไม่จำเป็นที่จะต้องซื้อ แต่เราให้มันเป็นคุณสมบัติพิเศษให้กับสมาชิกของ pokerdee.com มีแจ็คพ็อต 3 ราคให้คุณสามารถเลือกที่จะซื้อคือ 100 เหรียญสหรัฐ, 500, และ 100

รางวัลแจ็คพอตหลายระบบใน pokerdee.com ดังต่อไปนี้:

  1. small Pure X 50 ราคาแจ็คพอตที่คุณจะซื้อ
      (ตัวอย่าง: คุณซื้อแล้ว 100 X 50 = 5000)
  2. Large Pure X 50 แจ็คพอตที่คุณจะซื้อ
      (ตัวอย่าง: คุณซื้อแล้ว 100X 50 = 5000)
  3. Doublet X 200 ราคาแจ็คพอตที่คุณจะซื้อ
      (ตัวอย่าง: คุณซื้อแล้ว 100x 200 = 20000)
  4. Six Dewa X ราคา 6,666 แจ็คพอตที่คุณจะซื้อ
      (ตัวอย่าง: คุณซื้อแล้ว 100 X 6666 = 666600)

คำอธิบายดังกล่าวข้างต้นเป็นคำอธิบาย ของหลายแจ็คพอต pokerdee.com ขอขอบคุณและขอแสดงความยินดีในการเล่นเกมของเรา เราหวังว่าทุกท่านโชคดี!

Ceme ผู้ชนะ แจ็คพอต

TOP ENAM DEWA
No.วันที่ชื่อราคาชนะ
127/05 16:23AMRICA88murni enam15.150
227/05 16:11BHEKEN10murni enam1.515
327/05 16:11KUKANG222murni enam7.575
427/05 16:04DEASKY79murni enam15.150
527/05 15:34ALDIAGUSmurni enam1.515
TOP BALAK
No.วันที่ชื่อราคาชนะ
127/05 16:28KALMAR02balak454.55
227/05 16:28PETRA696balak454.55
327/05 16:28SAKAW1121balak45.45
427/05 16:26DAGOL9balak454.55
527/05 16:25ARSIFIANbalak45.45
P_LASTJACK
No.วันที่ชื่อราคาชนะ
127/05 16:28A76RANG352murni besar113.64
227/05 16:28ALEXA72murni besar11.36
327/05 16:28KIMOMPOLmurni besar113.64
427/05 16:28LR1X1G0GISmurni besar56.82
527/05 16:28DPIDmurni kecil113.64
627/05 16:28NUE1609murni kecil113.64
727/05 16:28KALMAR02balak454.55
827/05 16:28PETRA696balak454.55
927/05 16:28EVOS234murni besar113.64
1027/05 16:28SAKAW1121balak45.45
1127/05 16:27B3CCE4D1murni besar113.64
1227/05 16:27ULUWATUUmurni besar11.36
1327/05 16:27MENDHES90murni kecil113.64
1427/05 16:27CINTAIUSUSmurni besar11.36
1527/05 16:27NURSAID31murni kecil113.64
1627/05 16:27ASEP7115murni besar113.64
1727/05 16:27BUKABOLAmurni besar11.36
1827/05 16:27MUN32murni kecil113.64
1927/05 16:27KOKImurni besar113.64
2027/05 16:27JHONCOW23murni besar11.36
2127/05 16:26KALMAR02murni kecil113.64
2227/05 16:26KEREN2000murni kecil56.82
2327/05 16:26KALMAR02murni kecil113.64
2427/05 16:26KALMAR02murni kecil113.64
2527/05 16:26B4G1DU1Tmurni besar56.82
2627/05 16:26BANG_01murni kecil11.36
2727/05 16:26HOOG7888murni kecil113.64
2827/05 16:26KUNTUL_89murni kecil113.64
2927/05 16:26ATHA3RDmurni besar113.64
3027/05 16:26PERANI_YAHmurni besar56.82
3127/05 16:26LB882383murni kecil11.36
3227/05 16:26RINSO2018murni besar56.82
3327/05 16:26DAGOL9balak454.55
3427/05 16:26URANGHARATmurni kecil113.64
3527/05 16:26MELIODISmurni kecil56.82
3627/05 16:25ARSIFIANbalak45.45
3727/05 16:25F38C029Bbalak227.27
3827/05 16:25A76RANG352balak454.55
3927/05 16:25JOVANAT012murni kecil11.36
4027/05 16:25KIMOMPOLmurni besar113.64
4127/05 16:25BEGENK08murni besar113.64
4227/05 16:25O5GKCJ3YLPbalak454.55
4327/05 16:25MYWIFE07balak45.45
4427/05 16:24BLEHUR18murni besar11.36
4527/05 16:244C3Hmurni besar113.64
4627/05 16:24NAPITU60murni besar56.82
4727/05 16:24B3CCE4D1murni kecil113.64
4827/05 16:24WA_ASONbalak454.55
4927/05 16:24WQZAQF4U1Sbalak227.27
5027/05 16:24SOMBRO00murni besar113.64